Location: Devore Heights
(34.2372°N, 117.4156°W)
Time: 03:55:24
(UTC+00:00)

S-56A Canister/Altair - Pass Details

Date: 13 September 2024
Orbit: 636 x 2487 km, 38.9° (Epoch: 05 October)

Event Time Altitude Azimuth Distance (km) Brightness Sun altitude
Rises 07:00:06 0° 289° (WNW) 4,246 11.7 -50.7°
Reaches altitude 10° 07:02:34 10° 290° (WNW) 3,487 11.1 -50.9°
Enters shadow 07:04:05 18° 290° (WNW) 3,054 10.7 -51.0°
Maximum altitude 07:11:55 87° 19° (NNE) 1,860 - -51.4°
Drops below altitude 10° 07:25:40 10° 111° (ESE) 4,942 - -51.9°
Sets 07:29:52 0° 112° (ESE) 6,072 - -52.0°
